This demonstration page uses our WeatherBlox Daily Observations layout. Learn more.

Left ArrowRight Arrow

Hourly Observations for November 26, 2022

Temp ( °F °C ) Dew Point ( °F °C ) Humidity (%) Winds ( mph kmh ) Pressure ( in mb ) Visibility ( mi km ) Precip ( " mm )
12:53 am 00:53 Clear 35 1.7 16 -8.9 45 45 S 8 13 30.08 1019 10 16 0.00 0.00
1:53 am 01:53 Clear 34 1.1 16 -8.9 47 47 SSW 8 13 30.05 1018 10 16 0.00 0.00
2:53 am 02:53 Clear 34 1.1 15 -9.4 45 45 SSW 10 17 30.03 1017 10 16 0.00 0.00
3:53 am 03:53 Clear 33 0.6 15 -9.4 47 47 SSW 9 15 30.01 1016 10 16 0.00 0.00
4:53 am 04:53 Clear 31 -0.6 15 -9.4 51 51 SW 6 9 29.96 1015 10 16 0.00 0.00
5:53 am 05:53 Clear 30 -1.1 15 -9.4 53 53 S 8 13 29.93 1014 10 16 0.00 0.00
6:53 am 06:53 Clear 28 -2.2 15 -9.4 58 58 S 9 15 29.93 1014 10 16 0.00 0.00
7:53 am 07:53 Sunny 30 -1.1 15 -9.4 53 53 SW 5 7 29.93 1014 10 16 0.00 0.00
8:53 am 08:53 Sunny 35 1.7 17 -8.3 47 47 SSW 12 19 29.92 1013 10 16 0.00 0.00
9:53 am 09:53 Sunny 40 4.4 18 -7.8 41 41 SSW 12 19 29.92 1013 10 16 0.00 0.00
10:53 am 10:53 Sunny 47 8.3 18 -7.8 31 31 SW 9 15 29.86 1011 10 16 0.00 0.00
11:53 am 11:53 Sunny 50 10 19 -7.2 29 29 S 14 22 29.85 1011 10 16 0.00 0.00
12:53 pm 12:53 Sunny 52 11.1 20 -6.7 28 28 SSW 12 19 29.80 1009 10 16 0.00 0.00
1:53 pm 13:53 Sunny 58 14.4 21 -6.1 24 24 SW 8 13 29.77 1008 10 16 0.00 0.00
2:53 pm 14:53 Mostly Sunny 58 14.4 19 -7.2 22 22 SSW 12 19 29.75 1007 10 16 0.00 0.00
3:53 pm 15:53 Mostly Sunny 57 13.9 22 -5.6 25 25 SW 8 13 29.73 1007 10 16 0.00 0.00
4:53 pm 16:53 Mostly Sunny 54 12.2 22 -5.6 28 28 S 3 6 29.74 1007 10 16 0.00 0.00
5:53 pm 17:53 Cloudy 52 11.1 22 -5.6 30 30 Calm 29.76 1008 10 16 0.00 0.00
6:53 pm 18:53 Cloudy 53 11.7 26 -3.3 35 35 NNE 20 31 29.80 1009 10 16 0.00 0.00
7:53 pm 19:53 Cloudy 51 10.6 29 -1.7 42 42 N 20 31 29.78 1008 10 16 0.00 0.00
8:53 pm 20:53 Cloudy 50 10 29 -1.7 44 44 N 21 33 29.77 1008 10 16 0.00 0.00
9:53 pm 21:53 Cloudy 45 7.2 28 -2.2 51 51 N 25 41 29.80 1009 10 16 0.00 0.00
10:53 pm 22:53 Cloudy 42 5.6 28 -2.2 57 57 N 24 39 29.81 1009 10 16 0.00 0.00
11:53 pm 23:53 Mostly Clear 38 3.3 27 -2.8 64 64 N 21 33 29.82 1010 10 16 0.00 0.00

Powered by AerisWeather